Zurück zum Katalog

YAOGAN-30 D

AktivMilitärVLEO
NORAD 43028·PAYLOAD·🇨🇳 China

Gestartet Nov 24, 2017 von Xichang Satellite Launch Center

Loading…

Nächste Überflüge (nächste 24 Stunden)

TLE

AktuellSource: Space-Track

Epoche: Sep 14, 2026, 14:57 UTC

1 43028U 17075A   26257.62323543  .00002149  00000-0  15784-3 0  9991
2 43028  34.9943  85.1463 0002112 344.9934  15.0711 15.03192882480714

Verfolge YAOGAN-30 D in Echtzeit mit AllMySat

Download on the App Store